FW9688 Weather Reports


time (UTC)temp
C
wind
direction
speed
KPH
gust
KPH
rain 1hr
cm
rain 24hr
cm
rain mn
cm
humidity
%
barometer
mb
20260510143042 23 360 11.3 19.3 0.00 0.00 0.00 32 1012.7
20260510141545 23 360 14.5 20.9 0.00 0.00 0.00 32 1012.5
20260510140052 23 360 6.4 12.9 0.00 0.00 0.00 33 1012.3
20260510134540 22 360 9.7 16.1 0.00 0.00 0.00 34 1011.8
20260510133037 21 360 9.7 14.5 0.00 0.00 0.00 39 1011.5
20260510131547 20 360 4.8 11.3 0.00 0.00 0.00 43 1011.2
20260510130044 20 173 8.0 14.5 0.00 0.00 0.00 45 1010.7
20260510124544 20 360 3.2 9.7 0.00 0.00 0.00 46 1010.5
20260510123041 18 360 8.0 14.5 0.00 0.00 0.00 47 1010.5
20260510121537 20 360 1.6 6.4 0.00 0.00 0.00 44 1010.1
20260510120047 20 360 1.6 6.4 0.00 0.00 0.00 43 1010.1
20260510114543 17 360 1.6 8.0 0.00 0.00 0.00 50 1009.8
20260510113041 17 360 6.4 9.7 0.00 0.00 0.00 43 1010.0
20260510111537 20 360 3.2 16.1 0.00 0.00 0.00 38 1010.0
20260510110037 20 360 1.6 17.7 0.00 0.00 0.00 38 1009.9
20260510104537 19 360 8.0 14.5 0.00 0.00 0.00 38 1009.7
20260510103051 19 360 8.0 14.5 0.00 0.00 0.00 38 1009.5
20260510101548 21 360 1.6 9.7 0.00 0.00 0.00 35 1009.5
20260510100041 21 168 3.2 12.9 0.00 0.00 0.00 35 1009.4
20260510094543 21 360 1.6 6.4 0.00 0.00 0.00 33 1009.4
20260510093045 22 360 1.6 9.7 0.00 0.00 0.00 31 1009.5
20260510091544 20 360 6.4 20.9 0.00 0.00 0.00 33 1009.7
20260510090053 21 360 20.9 25.7 0.00 0.00 0.00 31 1009.4
20260510084541 21 360 12.9 19.3 0.00 0.00 0.00 29 1009.5
20260510083041 22 360 16.1 27.4 0.00 0.00 0.00 28 1009.2
20260510081543 22 360 20.9 29.0 0.00 0.00 0.00 27 1009.2
20260510080048 23 360 22.5 32.2 0.00 0.00 0.00 26 1009.1
20260510074537 23 360 22.5 33.8 0.00 0.00 0.00 25 1009.2
20260510073044 23 360 19.3 30.6 0.00 0.00 0.00 25 1009.3
20260510071542 23 360 20.9 29.0 0.00 0.00 0.00 26 1009.5
20260510070047 23 360 17.7 24.1 0.00 0.00 0.00 26 1009.7
20260510064537 23 360 16.1 24.1 0.00 0.00 0.00 25 1009.6
20260510063045 24 360 14.5 22.5 0.00 0.00 0.00 25 1009.8
20260510061537 24 360 14.5 19.3 0.00 0.00 0.00 24 1009.9
20260510060047 25 360 16.1 24.1 0.00 0.00 0.00 24 1009.9
20260510054556 25 360 16.1 22.5 0.00 0.00 0.00 23 1009.9
20260510053041 25 360 17.7 27.4 0.00 0.00 0.00 23 1009.7
20260510051545 26 360 17.7 27.4 0.00 0.00 0.00 22 1009.9
20260510050037 26 360 19.3 27.4 0.00 0.00 0.00 21 1010.1
20260510044547 26 360 19.3 35.4 0.00 0.00 0.00 21 1010.0
20260510043044 26 360 19.3 29.0 0.00 0.00 0.00 20 1009.7
20260510041600 27 360 22.5 37.0 0.00 0.00 0.00 18 1009.6
20260510040042 27 360 24.1 35.4 0.00 0.00 0.00 16 1009.5
20260510034539 27 360 20.9 27.4 0.00 0.00 0.00 15 1009.4
20260510033050 27 360 20.9 25.7 0.00 0.00 0.00 14 1009.3
20260510031552 27 360 19.3 25.7 0.00 0.00 0.00 14 1009.1
20260510030042 27 360 20.9 25.7 0.00 0.00 0.00 14 1009.3
20260510024558 27 360 19.3 24.1 0.00 0.00 0.00 14 1009.2
20260510023038 27 360 20.9 25.7 0.00 0.00 0.00 14 1008.9
20260510021538 28 360 14.5 19.3 0.00 0.00 0.00 14 1008.9
20260510020044 29 360 12.9 19.3 0.00 0.00 0.00 13 1008.9
20260510014552 30 360 9.7 16.1 0.00 0.00 0.00 13 1008.5
20260510013057 31 360 9.7 16.1 0.00 0.00 0.00 12 1008.6
20260510011540 31 360 8.0 17.7 0.00 0.00 0.00 11 1008.3
20260510010038 32 360 9.7 17.7 0.00 0.00 0.00 10 1008.3
20260510004545 32 360 8.0 25.7 0.00 0.00 0.00 10 1008.5
20260510003045 32 360 14.5 20.9 0.00 0.00 0.00 10 1008.3
20260510001542 33 360 17.7 22.5 0.00 0.00 0.00 9 1008.6
20260510000046 33 360 17.7 32.2 0.00 0.00 0.00 9 1008.9
20260509234543 33 360 22.5 30.6 0.00 0.00 0.00 9 1008.9
20260509233038 33 360 19.3 25.7 0.00 0.00 0.00 9 1008.8
20260509231550 33 360 17.7 35.4 0.00 0.00 0.00 9 1008.8
20260509230057 33 360 22.5 32.2 0.00 0.00 0.00 9 1009.0
20260509224543 33 360 12.9 32.2 0.00 0.00 0.00 9 1009.1
20260509223049 33 360 19.3 29.0 0.00 0.00 0.00 10 1009.5
20260509221545 33 360 12.9 27.4 0.00 0.00 0.00 10 1009.6
20260509220041 33 360 11.3 17.7 0.00 0.00 0.00 10 1009.7
20260509214540 33 360 11.3 25.7 0.00 0.00 0.00 10 1009.9
20260509213046 33 360 19.3 27.4 0.00 0.00 0.00 11 1009.9
20260509211550 32 360 19.3 32.2 0.00 0.00 0.00 11 1010.2
20260509210052 32 360 19.3 32.2 0.00 0.00 0.00 11 1010.6
20260509204543 32 360 9.7 24.1 0.00 0.00 0.00 12 1010.6
20260509203041 32 360 22.5 38.6 0.00 0.00 0.00 12 1011.1
20260509201538 32 360 14.5 40.2 0.00 0.00 0.00 13 1011.3
20260509200046 31 360 14.5 33.8 0.00 0.00 0.00 13 1011.6
20260509194543 31 360 17.7 32.2 0.00 0.00 0.00 13 1011.8
20260509193044 31 360 22.5 37.0 0.00 0.00 0.00 13 1011.7
20260509191543 31 360 19.3 32.2 0.00 0.00 0.00 13 1011.9
20260509190042 31 360 17.7 35.4 0.00 0.00 0.00 14 1011.9
20260509184542 30 360 16.1 40.2 0.00 0.00 0.00 15 1012.0
20260509183040 30 360 24.1 32.2 0.00 0.00 0.00 16 1012.7
20260509181541 29 360 19.3 37.0 0.00 0.00 0.00 17 1012.7
20260509180041 30 360 22.5 33.8 0.00 0.00 0.00 17 1013.2
20260509174539 29 360 25.7 35.4 0.00 0.00 0.00 18 1013.3
20260509173100 28 360 17.7 24.1 0.00 0.00 0.00 19 1013.2
20260509171541 28 360 9.7 30.6 0.00 0.00 0.00 21 1013.5
20260509170053 27 360 19.3 32.2 0.00 0.00 0.00 22 1013.6
20260509164541 27 360 16.1 25.7 0.00 0.00 0.00 22 1013.6
20260509163041 27 360 12.9 22.5 0.00 0.00 0.00 23 1013.4
20260509161543 26 360 16.1 22.5 0.00 0.00 0.00 24 1013.6
20260509160038 25 360 14.5 22.5 0.00 0.00 0.00 26 1013.6
20260509154543 24 360 9.7 24.1 0.00 0.00 0.00 29 1013.5
20260509153042 23 360 12.9 24.1 0.00 0.00 0.00 30 1013.7
20260509151553 23 360 16.1 24.1 0.00 0.00 0.00 30 1013.7
20260509150046 23 360 16.1 20.9 0.00 0.00 0.00 30 1013.5
20260509144537 23 360 11.3 22.5 0.00 0.00 0.00 31 1013.6